Location: *
(48.8489°N, 2.3218°E)
Time: 11:04:26
(UTC+00:00)

CZ-4C R/B - Pass Details

Date: 23 August 2019
Orbit: 655 x 1347 km, 63.4° (Epoch: 22 September)

Event Time Altitude Azimuth Distance (km) Brightness Sun altitude
Exits shadow 22:24:44 46° 75° (ENE) 1,108 2.7 -26.8°
Drops below altitude 10° 22:29:19 10° 46° (NE) 2,631 5.0 -27.1°
Sets 22:32:08 0° 43° (NE) 3,694 5.8 -27.2°
